Flag for U.S.A. Weather past 2 weeks in Akron, Ohio, U.S.A.

Now
78 °F

Mostly cloudy.


Feels Like: 81 °F
Forecast: 69 / 84 °F
Wind: 12 mph from Northwest

Location: Akron Fulton International Airport

Current Time: Jul 30, 2015 at 3:02:26 AM

Latest Report: Jul 30, 2015 at 2:01 AM


Visibility: 10 mi

Pressure: 29.95 "Hg

Humidity: 82%

Dew point: 72 °F

Location of AkronLocation

Historic Weather in Akron — Graph

°F

Akron temperature yesterday

Maximum temperature yesterday: 91 °F (at 3:54 PM)
Minimum temperature yesterday: 67 °F (at 6:54 AM)
Average temperature yesterday: 80 °F

Past Weeks' High & Low Weather Summary

 TemperatureHumidityPressure
High91 °F (Jul 29, 3:54 PM)93% (Jul 15, 5:54 AM)30.09 "Hg (Jul 15, 5:54 AM)
Low53 °F (Jul 16, 4:54 AM)24% (Jul 23, 5:54 PM)29.68 "Hg (Jul 15, 2:54 AM)
Average75 °F66%29.93 "Hg
* Reported Jul 15 2:54 AM — Jul 30 2:01 AM, Akron, Weather by CustomWeather, © 2015

Note: Actual official high and low records may vary slightly from our data, if they occured in-between our weather recording intervals... More about our weather records

Advertising

Akron weather history for previous 24 hours

 ConditionsComfort  
Time TempWeatherWind HumidityBarometerVisibility
2:01 AM
Thu, Jul 30
78 °FMostly cloudy.12 mph82%29.95 "Hg10 mi
12:54 AM78 °FMostly cloudy.8 mph82%29.91 "Hg9 mi
11:54 PM
Wed, Jul 29
78 °FClear.8 mph84%29.91 "Hg9 mi
10:54 PM78 °FClear.6 mph84%29.90 "Hg9 mi
9:54 PM79 °FLight rain. Passing clouds.10 mph82%29.90 "Hg10 mi
8:54 PM84 °FPartly sunny.7 mph65%29.89 "Hg10 mi
7:54 PM86 °FSunny.7 mph59%29.90 "Hg10 mi
6:54 PM88 °FSunny.7 mph54%29.89 "Hg10 mi
5:54 PM89 °FSunny.8 mph48%29.90 "Hg10 mi
4:54 PM90 °FSunny.8 mph45%29.89 "Hg10 mi
3:54 PM91 °FPassing clouds.10 mph47%29.91 "Hg10 mi
2:54 PM90 °FSunny.7 mph43%29.93 "Hg10 mi
1:54 PM90 °FSunny.7 mph43%29.94 "Hg10 mi
12:54 PM89 °FSunny.N/A43%29.96 "Hg10 mi
11:54 AM88 °FSunny.5 mph42%29.96 "Hg10 mi
10:54 AM86 °FSunny.3 mph51%29.97 "Hg10 mi
9:54 AM82 °FSunny.No wind63%29.97 "Hg9 mi
8:54 AM78 °FSunny.No wind71%29.97 "Hg9 mi
7:54 AM73 °FSunny.No wind79%29.96 "Hg10 mi
6:54 AM67 °FClear.3 mph87%29.96 "Hg8 mi
5:54 AM69 °FPassing clouds.No wind84%29.96 "Hg10 mi
4:54 AM69 °FPassing clouds.No wind84%29.95 "Hg10 mi
3:54 AM69 °FClear.No wind81%29.96 "Hg10 mi
Weather by CustomWeather, © 2015

See weather overviewHow to use our weather pages